Regional Weather Roundup
Issued by NWS

Home | Current Version | Previous Version | Graphics & Text | Print | Product List | Glossary On
Versions: 1 2 3 4 5 6 7 8 9 10 11 12 13 14 15 16 17 18 19 20 21 22 23 24 25 26 27 28 29 30 31 32 33 34 35 36 37 38 39 40 41 42 43 44 45 46 47 48 49 50
000
ASUS45 KSLC 292310
RWRUT

UTAH REGIONAL WEATHER ROUNDUP
NATIONAL WEATHER SERVICE SALT LAKE CITY UT
500 PM MDT WED JUL 29 2015

UTZ001>011-023>025-300000-

NORTHERN UTAH

CITY           SKY/WX    TMP DP  RH WIND       PRES   REMARKS
BRIGHAM CITY   SUNNY     83  14   7 SW6       30.24F
HILL AFB       SUNNY     83  28  13 W3        30.27F
LOGAN          SUNNY     82   8   6 VRB3      30.25F
OGDEN          SUNNY     83  24  11 NW6       30.25F
PROVO AIRPORT  NOT AVBL
SALT LAKE CITY SUNNY     86  24  10 N9        30.22F
VERNAL         SUNNY     85  10   6 CALM      30.24F
WENDOVER       SUNNY     84  28  13 SE5       30.24F
HEBER CITY     SUNNY     86  27  11 W5        30.28F
WEST JORDAN    SUNNY     82  34  17 N10       30.26F

$$

UTZ012>022-026-027-300000-

SOUTHERN/CENTRAL UTAH

CITY           SKY/WX    TMP DP  RH WIND       PRES   REMARKS
BLANDING       MOSUNNY   91  31  12 S7        30.29S
BRYCE CANYON   MOSUNNY   81  30  15 CALM      30.38F
CEDAR CITY     SUNNY     91  17   6 N8G17     30.22F
DELTA          SUNNY     88  23   9 CALM      30.22F
HANKSVILLE     SUNNY     93  27   9 CALM      30.14F
MILFORD        SUNNY     91  28  10 VRB5      30.20F
MOAB/CYNLANDS  SUNNY     94  23   8 N3        30.13F
PRICE          SUNNY     89  20   8 VRB7      30.25F
ST GEORGE      CLEAR     99  34  10 SW12      30.01F HX  93
KANAB          MOSUNNY   95  30  10 E3        30.19F

$$

REGIONAL REPORTS     COLORADO/ARIZONA

CITY           SKY/WX    TMP DP  RH WIND       PRES   REMARKS
CRAIG, CO        N/A     86  20   9 NW8       30.30F
GRAND JUNCTION MOSUNNY   89  24   9 NW5G17    30.15F
RIFLE          MOSUNNY   89  26  10 W5        30.20F
MONTROSE       MOSUNNY   89  31  12 N10       30.24F
CORTEZ         SUNNY     84  44  24 S17       30.25S
PAGE, AZ       SUNNY     97  23   7 VRB3      30.09F HX  90
GRAND CANYON   MOSUNNY   88  25  10 N13G22    30.28F
KINGMAN        PTSUNNY   95  51  22 SW14G22   30.06F HX  92
FLAGSTAFF      CLOUDY    69  48  47 W6        30.35S

$$

REGIONAL REPORTS    NEVADA/IDAHO/WYOMING

CITY           SKY/WX    TMP DP  RH WIND       PRES   REMARKS
LAS VEGAS, NV  CLOUDY   101  36  10 E7        29.92F HX  95
ELY            SUNNY     86  22   9 S5        30.27F
ELKO           SUNNY     89  19   7 W10G17    30.22F
POCATELLO, ID  MOSUNNY   81  37  20 NW12      30.27F
BURLEY         SUNNY     83  29  14 VRB5      30.22F
EVANSTON, WY   SUNNY     79  16   9 W10       30.40S
ROCK SPRINGS   SUNNY     78  13   8 W12G21    30.37F
KEMMERER       SUNNY     77  14   9 W10G17    30.41F

$$


USA.gov is the U.S. government's official web portal to all federal, state and local government web resources and services.